Hourly Weather Bucharest

Today, 19 May, Wednesday

Time Temperature Precipitation Wind Pressure Humidity
00:00 +14°C° 0 mm 7 mps 749 mmHg 60%
01:00 +12°C° 0 mm 7 mps 749 mmHg 62%
02:00 +13°C° 0 mm 6 mps 750 mmHg 63%
03:00 +11°C° 0 mm 6 mps 750 mmHg 66%
04:00 +12°C° 0 mm 5 mps 750 mmHg 69%
05:00 +11°C° 0 mm 4 mps 750 mmHg 72%
06:00 +12°C° 0 mm 4 mps 750 mmHg 68%
07:00 +14°C° 0 mm 5 mps 751 mmHg 64%
08:00 +15°C° 0 mm 5 mps 751 mmHg 61%
09:00 +18°C° 0 mm 4 mps 751 mmHg 54%
10:00 +20°C° 0 mm 4 mps 751 mmHg 48%
11:00 +22°C° 0 mm 4 mps 751 mmHg 42%
12:00 +22°C° 0 mm 4 mps 751 mmHg 40%
13:00 +23°C° 0 mm 4 mps 751 mmHg 38%
14:00 +25°C° 0 mm 3 mps 750 mmHg 37%
15:00 +25°C° 0 mm 3 mps 750 mmHg 39%
16:00 +24°C° 0 mm 3 mps 750 mmHg 42%
17:00 +24°C° 0 mm 3 mps 750 mmHg 44%
18:00 +23°C° 0 mm 2 mps 750 mmHg 47%
19:00 +20°C° 0 mm 2 mps 749 mmHg 49%
20:00 +20°C° 0 mm 1 mps 749 mmHg 52%
21:00 +19°C° 0.3 mm 1 mps 749 mmHg 60%
22:00 +17°C° 0.3 mm 2 mps 749 mmHg 69%
23:00 +15°C° 0.3 mm 2 mps 749 mmHg 77%

Tomorrow, 20 May, Thursday

Time Temperature Precipitation Wind Pressure Humidity
00:00 +14°C° 0.7 mm 3 mps 749 mmHg 82%
01:00 +13°C° 0.7 mm 3 mps 749 mmHg 87%
02:00 +13°C° 0.7 mm 4 mps 749 mmHg 92%
03:00 +13°C° 0.3 mm 3 mps 749 mmHg 92%
04:00 +14°C° 0.3 mm 2 mps 749 mmHg 93%
05:00 +14°C° 0.3 mm 1 mps 749 mmHg 93%
06:00 +14°C° 0 mm 2 mps 749 mmHg 90%
07:00 +14°C° 0 mm 3 mps 749 mmHg 86%
08:00 +16°C° 0 mm 3 mps 749 mmHg 82%
09:00 +15°C° 0.3 mm 5 mps 749 mmHg 80%
10:00 +15°C° 0.3 mm 6 mps 750 mmHg 79%
11:00 +15°C° 0.3 mm 7 mps 750 mmHg 77%
12:00 +16°C° 0.1 mm 7 mps 750 mmHg 70%
13:00 +17°C° 0.1 mm 7 mps 750 mmHg 63%
14:00 +17°C° 0.1 mm 7 mps 750 mmHg 56%
15:00 +17°C° 0 mm 7 mps 750 mmHg 57%
16:00 +17°C° 0 mm 7 mps 749 mmHg 58%
17:00 +16°C° 0 mm 7 mps 749 mmHg 60%
18:00 +15°C° 0 mm 6 mps 750 mmHg 62%
19:00 +14°C° 0 mm 6 mps 750 mmHg 65%
20:00 +13°C° 0 mm 5 mps 750 mmHg 67%
21:00 +12°C° 0 mm 5 mps 751 mmHg 72%
22:00 +10°C° 0 mm 5 mps 751 mmHg 77%
23:00 +9°C° 0 mm 5 mps 751 mmHg 81%

Day after tomorrow, 21 May, Friday

Time Temperature Precipitation Wind Pressure Humidity
00:00 +9°C° 0 mm 5 mps 751 mmHg 83%
01:00 +9°C° 0 mm 5 mps 751 mmHg 86%
02:00 +8°C° 0 mm 4 mps 751 mmHg 88%
03:00 +8°C° 0 mm 4 mps 751 mmHg 87%
04:00 +10°C° 0 mm 3 mps 751 mmHg 86%
05:00 +10°C° 0 mm 3 mps 751 mmHg 85%
06:00 +10°C° 0 mm 3 mps 751 mmHg 82%
07:00 +12°C° 0 mm 2 mps 751 mmHg 80%
08:00 +13°C° 0 mm 2 mps 752 mmHg 78%
09:00 +14°C° 0 mm 2 mps 752 mmHg 73%
10:00 +16°C° 0 mm 2 mps 752 mmHg 68%
11:00 +17°C° 0 mm 2 mps 752 mmHg 62%
12:00 +18°C° 0.1 mm 2 mps 752 mmHg 57%
13:00 +19°C° 0.1 mm 2 mps 751 mmHg 52%
14:00 +20°C° 0.1 mm 3 mps 751 mmHg 47%
15:00 +20°C° 0.1 mm 3 mps 751 mmHg 51%
16:00 +19°C° 0.1 mm 2 mps 752 mmHg 55%
17:00 +18°C° 0.1 mm 2 mps 752 mmHg 59%
18:00 +17°C° 0 mm 2 mps 752 mmHg 61%
19:00 +16°C° 0 mm 2 mps 753 mmHg 64%
20:00 +15°C° 0 mm 2 mps 753 mmHg 67%
21:00 +15°C° 0 mm 2 mps 753 mmHg 68%
22:00 +14°C° 0 mm 2 mps 753 mmHg 69%
23:00 +13°C° 0 mm 2 mps 753 mmHg 70%

22 May, Saturday

Time Temperature Precipitation Wind Pressure Humidity
00:00 +13°C° 0 mm 2 mps 754 mmHg 72%
01:00 +12°C° 0 mm 2 mps 754 mmHg 74%
02:00 +12°C° 0 mm 2 mps 754 mmHg 75%
03:00 +11°C° 0 mm 1 mps 754 mmHg 77%
04:00 +11°C° 0 mm 1 mps 754 mmHg 78%
05:00 +11°C° 0 mm 1 mps 754 mmHg 79%
06:00 +13°C° 0 mm 1 mps 754 mmHg 74%
07:00 +14°C° 0 mm 1 mps 754 mmHg 68%
08:00 +16°C° 0 mm 2 mps 754 mmHg 63%
09:00 +18°C° 0 mm 2 mps 754 mmHg 58%
10:00 +19°C° 0 mm 2 mps 754 mmHg 54%
11:00 +21°C° 0 mm 2 mps 754 mmHg 49%
12:00 +23°C° 0 mm 2 mps 754 mmHg 47%
13:00 +23°C° 0 mm 2 mps 754 mmHg 44%
14:00 +24°C° 0 mm 2 mps 753 mmHg 42%
15:00 +24°C° 0 mm 1 mps 753 mmHg 42%
16:00 +25°C° 0 mm 1 mps 753 mmHg 42%
17:00 +25°C° 0 mm 1 mps 753 mmHg 42%
18:00 +23°C° 0 mm 2 mps 753 mmHg 48%
19:00 +20°C° 0 mm 2 mps 753 mmHg 54%
20:00 +18°C° 0 mm 2 mps 753 mmHg 59%
21:00 +18°C° 0 mm 2 mps 753 mmHg 62%
22:00 +17°C° 0 mm 2 mps 753 mmHg 64%
23:00 +16°C° 0 mm 2 mps 753 mmHg 66%

23 May, Sunday

Time Temperature Precipitation Wind Pressure Humidity
00:00 +16°C° 0 mm 2 mps 753 mmHg 68%
01:00 +15°C° 0 mm 2 mps 753 mmHg 69%
02:00 +15°C° 0 mm 2 mps 753 mmHg 71%
03:00 +15°C° 0 mm 2 mps 753 mmHg 72%
04:00 +15°C° 0 mm 2 mps 753 mmHg 73%
05:00 +14°C° 0 mm 2 mps 753 mmHg 74%
06:00 +16°C° 0 mm 2 mps 753 mmHg 70%
07:00 +18°C° 0 mm 2 mps 753 mmHg 66%
08:00 +19°C° 0 mm 3 mps 753 mmHg 62%
09:00 +21°C° 0 mm 3 mps 753 mmHg 57%
10:00 +24°C° 0 mm 3 mps 753 mmHg 51%
11:00 +25°C° 0 mm 3 mps 753 mmHg 45%
12:00 +26°C° 0 mm 3 mps 752 mmHg 43%
13:00 +27°C° 0 mm 3 mps 752 mmHg 41%
14:00 +28°C° 0 mm 3 mps 752 mmHg 38%
15:00 +28°C° 0 mm 3 mps 752 mmHg 40%
16:00 +28°C° 0 mm 3 mps 751 mmHg 41%
17:00 +28°C° 0 mm 3 mps 751 mmHg 43%
18:00 +26°C° 0 mm 3 mps 751 mmHg 48%
19:00 +24°C° 0 mm 3 mps 752 mmHg 53%
20:00 +21°C° 0 mm 2 mps 752 mmHg 58%
21:00 +21°C° 0 mm 3 mps 752 mmHg 61%
22:00 +20°C° 0 mm 3 mps 753 mmHg 64%
23:00 +19°C° 0 mm 3 mps 753 mmHg 67%

24 May, Monday

Time Temperature Precipitation Wind Pressure Humidity
00:00 +19°C° 0.1 mm 3 mps 754 mmHg 71%
01:00 +18°C° 0.1 mm 3 mps 754 mmHg 75%
02:00 +18°C° 0.1 mm 3 mps 755 mmHg 79%
03:00 +17°C° 0.1 mm 3 mps 756 mmHg 79%
04:00 +16°C° 0.1 mm 2 mps 757 mmHg 80%
05:00 +15°C° 0.1 mm 2 mps 757 mmHg 81%
06:00 +16°C° 0 mm 2 mps 758 mmHg 77%
07:00 +16°C° 0 mm 2 mps 759 mmHg 74%
08:00 +17°C° 0 mm 2 mps 760 mmHg 70%
09:00 +18°C° 0 mm 2 mps 760 mmHg 65%
10:00 +20°C° 0 mm 1 mps 760 mmHg 60%
11:00 +21°C° 0 mm 1 mps 761 mmHg 55%
12:00 +21°C° 0 mm 2 mps 761 mmHg 52%
13:00 +23°C° 0 mm 2 mps 760 mmHg 48%
14:00 +24°C° 0 mm 2 mps 760 mmHg 45%
15:00 +24°C° 0 mm 2 mps 760 mmHg 45%
16:00 +24°C° 0 mm 3 mps 760 mmHg 45%
17:00 +24°C° 0 mm 3 mps 760 mmHg 45%
18:00 +23°C° 0 mm 2 mps 760 mmHg 51%
19:00 +20°C° 0 mm 2 mps 761 mmHg 56%
20:00 +19°C° 0 mm 2 mps 761 mmHg 61%
21:00 +18°C° 0 mm 2 mps 761 mmHg 62%
22:00 +17°C° 0 mm 2 mps 761 mmHg 63%
23:00 +17°C° 0 mm 2 mps 762 mmHg 64%
Show more

We Need Your Consent

Meteoprog and our Service Providers may store and access personal data such as cookies, device identifiers or other similar technologies on your device and process such data to personalise content and ads, as well as provide social media features and to analyse the traffic.

  • Store and/or access information on your device

    Cookies, device identifiers or other information can be stored or accessed on your device for the purposes indicated above.

  • Personalised ads and content, ad and content measurement, audience insights, and products development

    Ads and content can be personalised based on a profile. More data can be added to better personalise ads and content. Ad and content performance can be measured. Insights about the audience who saw the ads and content can be derived. Such data can be used to develop or improve user’s experience, systems and software.

By clicking ‘I Agree’ you will allow the use of indicated cookies, device identifiers, web beacons or other similar technologies. Your settings can be changed in the browser on your device.

For certain purposes, legitimate interests may be relied on, rather than consent. You can read more about this in our Privacy and Cookie Policy.